Flag for Norway Weather past 2 weeks in Drøbak, Norway

Now
43 °F

Partly cloudy.


Feels Like: 34 °F
Forecast: 33 / 46 °F
Wind: 18 mph from Southwest

Location: Oslo / Fornebu

Current Time: Mar 5, 2015 at 2:05:23 AM

Latest Report: Mar 5, 2015 at 1:20 AM


Visibility: N/A

Pressure: 30.15 "Hg

Humidity: 71%

Dew point: 34 °F

Location of DrøbakLocation

Historic Weather in Drøbak — Graph

°F

Drøbak temperature yesterday

Maximum temperature yesterday: 43 °F (at 11:20 AM)
Minimum temperature yesterday: 37 °F (at 1:50 PM)
Average temperature yesterday: 41 °F

Past Weeks' High & Low Weather Summary

 TemperatureHumidityPressure
High48 °F (Feb 18, 8:50 AM)100% (Feb 18, 1:50 AM)30.15 "Hg (Feb 18, 1:50 AM)
Low34 °F (Feb 22, 6:50 AM)53% (Mar 2, 1:20 PM)28.44 "Hg (Mar 1, 12:20 PM)
Average42 °F79%29.24 "Hg
* Reported Feb 18 1:20 AM — Mar 5 12:50 AM, Drøbak, Weather by CustomWeather, © 2015

Note: Actual official high and low records may vary slightly from our data, if they occured in-between our weather recording intervals... More about our weather records

Advertising

Drøbak weather history for previous 24 hours

 ConditionsComfort  
Time TempWeatherWind HumidityBarometerVisibility
12:50 AM
Thu, Mar 5
43 °FPassing clouds.20 mph66%30.15 "HgN/A
12:20 AM43 °FPartly cloudy.18 mph66%30.15 "HgN/A
11:50 PM
Wed, Mar 4
43 °FPassing clouds.21 mph61%30.15 "HgN/A
11:20 PM43 °FPassing clouds.22 mph53%30.15 "HgN/A
10:20 PM43 °FPassing clouds.25 mph53%30.15 "HgN/A
9:50 PM43 °FOvercast.17 mph61%30.15 "HgN/A
9:20 PM41 °FPassing clouds.17 mph70%30.15 "HgN/A
8:50 PM41 °FPassing clouds.23 mph70%30.15 "HgN/A
8:20 PM41 °FPassing clouds.22 mph66%30.12 "HgN/A
7:50 PM41 °FPassing clouds.29 mph70%30.12 "HgN/A
7:20 PM41 °FPassing clouds.30 mph66%30.09 "HgN/A
6:50 PM41 °FPassing clouds.30 mph70%30.09 "HgN/A
6:20 PM41 °FPassing clouds.24 mph76%30.09 "HgN/A
5:50 PM41 °FScattered clouds.26 mph70%30.07 "HgN/A
5:20 PM39 °FPartly sunny.30 mph75%30.07 "HgN/A
4:50 PM39 °FSprinkles. Broken clouds.28 mph75%30.07 "HgN/A
4:20 PM39 °FScattered clouds.23 mph70%30.04 "HgN/A
3:50 PM41 °FScattered clouds.24 mph66%30.04 "HgN/A
3:20 PM39 °FBroken clouds.21 mph70%30.01 "HgN/A
2:50 PM39 °FPartly sunny.23 mph75%30.01 "HgN/A
2:20 PM37 °FPartly sunny.32 mph87%30.01 "HgN/A
1:50 PM37 °FSprinkles. Partly sunny.22 mph81%30.01 "HgN/A
1:20 PM39 °FRain showers. Partly sunny.26 mph75%29.98 "HgN/A
12:50 PM41 °FPartly sunny.21 mph66%29.95 "HgN/A
12:20 PM39 °FLight rain. Broken clouds.28 mph70%29.95 "HgN/A
11:50 AM43 °FPassing clouds.21 mph61%29.92 "HgN/A
11:20 AM43 °FBroken clouds.22 mph66%29.89 "HgN/A
10:50 AM41 °FPartly sunny.22 mph76%29.89 "HgN/A
10:20 AM41 °FQuite cool.20 mph70%29.86 "HgN/A
9:50 AM41 °FPassing clouds.15 mph76%29.83 "HgN/A
9:20 AM39 °FPassing clouds.15 mph81%29.83 "HgN/A
8:50 AM39 °FBroken clouds.16 mph81%29.80 "HgN/A
8:20 AM39 °FSprinkles. Partly sunny.9 mph81%29.80 "HgN/A
7:50 AM41 °FLight rain. Partly sunny.20 mph70%29.77 "Hg4 mi
7:20 AM41 °FPartly sunny.7 mph70%29.74 "HgN/A
6:50 AM41 °FPartly cloudy.15 mph70%29.71 "HgN/A
6:20 AM41 °FPartly cloudy.7 mph66%29.71 "HgN/A
5:50 AM41 °FPassing clouds.6 mph61%29.68 "HgN/A
5:20 AM41 °FQuite cool.6 mph61%29.68 "HgN/A
4:50 AM41 °FPassing clouds.6 mph61%29.65 "HgN/A
4:20 AM41 °FPassing clouds.6 mph57%29.65 "HgN/A
3:50 AM41 °FPassing clouds.8 mph57%29.62 "HgN/A
3:20 AM41 °FPassing clouds.7 mph57%29.59 "HgN/A
2:50 AM41 °FQuite cool.8 mph61%29.59 "HgN/A
2:20 AM41 °FQuite cool.7 mph61%29.59 "HgN/A
Weather by CustomWeather, © 2015

See weather overviewHow to use our weather pages